Time,TemperatureF,DewpointF,PressureIn,WindDirection,WindDirectionDegrees,WindSpeedMPH,WindSpeedGustMPH,Humidity,HourlyPrecipIn,Conditions,Clouds,dailyrainin,SoftwareType,DateUTC
2013-02-20 00:05:00,49.1,40.0,30.19,East,86,0.0,2.0,71,0.00,,,0.00,weatherlink.com 1.10,2013-02-20 06:05:00,
2013-02-20 00:20:00,49.0,38.0,30.18,East,86,0.0,2.0,65,0.00,,,0.00,weatherlink.com 1.10,2013-02-20 06:20:00,
2013-02-20 00:35:00,49.5,38.0,30.17,East,92,1.0,2.0,64,0.00,,,0.00,weatherlink.com 1.10,2013-02-20 06:35:00,
2013-02-20 00:50:00,50.6,37.0,30.17,East,100,2.0,4.0,59,0.00,,,0.00,weatherlink.com 1.10,2013-02-20 06:50:00,
2013-02-20 01:05:00,50.9,37.0,30.17,ENE,57,1.0,4.0,59,0.00,,,0.00,weatherlink.com 1.10,2013-02-20 07:05:00,
2013-02-20 01:20:00,50.8,38.0,30.17,East,95,0.0,5.0,62,0.00,,,0.00,weatherlink.com 1.10,2013-02-20 07:20:00,
2013-02-20 01:35:00,50.4,38.0,30.18,NE,39,0.0,3.0,62,0.00,,,0.00,weatherlink.com 1.10,2013-02-20 07:35:00,
2013-02-20 01:50:00,49.9,39.0,30.19,NE,38,0.0,2.0,67,0.00,,,0.00,weatherlink.com 1.10,2013-02-20 07:50:00,
2013-02-20 02:05:00,49.4,40.0,30.19,NE,38,0.0,0.0,70,0.00,,,0.00,weatherlink.com 1.10,2013-02-20 08:05:00,
2013-02-20 02:20:00,49.2,38.0,30.17,NE,38,0.0,1.0,66,0.00,,,0.00,weatherlink.com 1.10,2013-02-20 08:20:00,
2013-02-20 02:35:00,49.1,40.0,30.17,NE,38,0.0,1.0,70,0.00,,,0.00,weatherlink.com 1.10,2013-02-20 08:35:00,
2013-02-20 02:50:00,48.6,38.0,30.17,NE,38,0.0,0.0,68,0.00,,,0.00,weatherlink.com 1.10,2013-02-20 08:50:00,
2013-02-20 03:06:00,48.4,39.0,30.16,NE,38,0.0,2.0,71,0.00,,,0.00,weatherlink.com 1.10,2013-02-20 09:06:00,
2013-02-20 03:21:00,48.7,38.0,30.15,ENE,72,1.0,2.0,67,0.00,,,0.00,weatherlink.com 1.10,2013-02-20 09:21:00,
2013-02-20 03:35:00,48.8,38.0,30.16,ENE,72,0.0,1.0,67,0.00,,,0.00,weatherlink.com 1.10,2013-02-20 09:35:00,
2013-02-20 03:50:00,49.0,38.0,30.16,NNE,25,0.0,3.0,66,0.00,,,0.00,weatherlink.com 1.10,2013-02-20 09:50:00,
2013-02-20 04:05:00,49.1,38.0,30.17,SE,138,1.0,2.0,67,0.00,,,0.00,weatherlink.com 1.10,2013-02-20 10:05:00,
2013-02-20 04:21:00,49.2,38.0,30.16,NE,43,0.0,2.0,66,0.00,,,0.00,weatherlink.com 1.10,2013-02-20 10:21:00,
2013-02-20 04:35:00,49.1,38.0,30.16,ESE,117,0.0,1.0,65,0.00,,,0.00,weatherlink.com 1.10,2013-02-20 10:35:00,
2013-02-20 04:51:00,49.1,38.0,30.16,SE,140,0.0,5.0,65,0.00,,,0.00,weatherlink.com 1.10,2013-02-20 10:51:00,
2013-02-20 05:05:00,49.0,38.0,30.16,SE,132,0.0,2.0,65,0.00,,,0.00,weatherlink.com 1.10,2013-02-20 11:05:00,
2013-02-20 05:20:00,49.1,37.0,30.18,ESE,116,1.0,4.0,64,0.00,,,0.00,weatherlink.com 1.10,2013-02-20 11:20:00,
2013-02-20 05:36:00,49.0,37.0,30.18,SSE,164,1.0,3.0,64,0.00,,,0.00,weatherlink.com 1.10,2013-02-20 11:36:00,
2013-02-20 05:50:00,49.0,37.0,30.18,East,84,0.0,4.0,63,0.00,,,0.00,weatherlink.com 1.10,2013-02-20 11:50:00,
2013-02-20 06:05:00,48.9,37.0,30.18,NE,44,1.0,2.0,64,0.00,,,0.00,weatherlink.com 1.10,2013-02-20 12:05:00,
2013-02-20 06:20:00,48.8,38.0,30.17,NE,45,1.0,2.0,66,0.00,,,0.00,weatherlink.com 1.10,2013-02-20 12:20:00,
2013-02-20 06:35:00,48.7,36.0,30.17,NE,45,0.0,2.0,63,0.00,,,0.00,weatherlink.com 1.10,2013-02-20 12:35:00,
2013-02-20 06:50:00,48.9,34.0,30.16,North,355,2.0,4.0,58,0.00,,,0.00,weatherlink.com 1.10,2013-02-20 12:50:00,
2013-02-20 07:05:00,48.8,37.0,30.15,ESE,117,1.0,6.0,63,0.00,,,0.00,weatherlink.com 1.10,2013-02-20 13:05:00,
2013-02-20 07:20:00,48.1,38.0,30.18,NNW,334,1.0,5.0,69,0.00,,,0.00,weatherlink.com 1.10,2013-02-20 13:20:00,
2013-02-20 07:35:00,47.3,39.0,30.20,SE,134,4.0,4.0,72,0.00,,,0.00,weatherlink.com 1.10,2013-02-20 13:35:00,
2013-02-20 07:51:00,47.0,37.0,30.18,SSW,207,0.0,9.0,69,0.00,,,0.00,weatherlink.com 1.10,2013-02-20 13:51:00,
2013-02-20 08:06:00,47.3,36.0,30.16,ESE,117,0.0,7.0,66,0.00,,,0.00,weatherlink.com 1.10,2013-02-20 14:06:00,
2013-02-20 08:21:00,48.0,35.0,30.12,ESE,117,5.0,7.0,60,0.00,,,0.00,weatherlink.com 1.10,2013-02-20 14:21:00,
2013-02-20 08:36:00,48.8,34.0,30.16,NNW,345,4.0,11.0,58,0.00,,,0.00,weatherlink.com 1.10,2013-02-20 14:36:00,
2013-02-20 08:51:00,49.9,33.0,30.18,SSE,148,7.0,9.0,53,0.00,,,0.00,weatherlink.com 1.10,2013-02-20 14:51:00,
2013-02-20 09:06:00,50.4,34.0,30.17,East,92,1.0,6.0,53,0.00,,,0.00,weatherlink.com 1.10,2013-02-20 15:06:00,
2013-02-20 09:21:00,50.9,33.0,30.17,East,85,3.0,9.0,51,0.00,,,0.00,weatherlink.com 1.10,2013-02-20 15:21:00,
2013-02-20 09:36:00,51.2,32.0,30.18,ESE,120,2.0,7.0,48,0.00,,,0.00,weatherlink.com 1.10,2013-02-20 15:36:00,
2013-02-20 09:51:00,51.0,32.0,30.15,ENE,70,1.0,5.0,49,0.00,,,0.00,weatherlink.com 1.10,2013-02-20 15:51:00,
2013-02-20 10:06:00,51.4,32.0,30.15,East,92,2.0,10.0,48,0.00,,,0.00,weatherlink.com 1.10,2013-02-20 16:06:00,
2013-02-20 10:21:00,51.3,33.0,30.16,SE,133,1.0,8.0,49,0.00,,,0.00,weatherlink.com 1.10,2013-02-20 16:21:00,
2013-02-20 10:36:00,51.3,33.0,30.14,East,97,0.0,11.0,50,0.00,,,0.00,weatherlink.com 1.10,2013-02-20 16:36:00,
2013-02-20 10:51:00,52.4,33.0,30.09,ESE,102,5.0,13.0,48,0.00,,,0.00,weatherlink.com 1.10,2013-02-20 16:51:00,
2013-02-20 11:06:00,53.4,32.0,30.14,East,100,7.0,7.0,44,0.00,,,0.00,weatherlink.com 1.10,2013-02-20 17:06:00,
2013-02-20 11:21:00,52.0,31.0,30.12,East,87,2.0,7.0,44,0.00,,,0.00,weatherlink.com 1.10,2013-02-20 17:21:00,
2013-02-20 11:36:00,51.7,32.0,30.14,NNE,24,0.0,6.0,47,0.00,,,0.00,weatherlink.com 1.10,2013-02-20 17:36:00,
2013-02-20 11:51:00,52.0,32.0,30.14,ESE,109,4.0,7.0,46,0.00,,,0.00,weatherlink.com 1.10,2013-02-20 17:51:00,
2013-02-20 12:06:00,52.2,32.0,30.13,ESE,103,1.0,7.0,47,0.00,,,0.00,weatherlink.com 1.10,2013-02-20 18:06:00,
2013-02-20 12:21:00,54.4,32.0,30.11,SE,145,3.0,10.0,42,0.00,,,0.00,weatherlink.com 1.10,2013-02-20 18:21:00,
2013-02-20 12:36:00,53.4,32.0,30.08,East,83,0.0,10.0,45,0.00,,,0.00,weatherlink.com 1.10,2013-02-20 18:36:00,
2013-02-20 12:51:00,53.3,32.0,30.08,East,94,2.0,9.0,44,0.00,,,0.00,weatherlink.com 1.10,2013-02-20 18:51:00,
2013-02-20 13:06:00,53.5,32.0,30.07,SE,143,0.0,8.0,44,0.00,,,0.00,weatherlink.com 1.10,2013-02-20 19:06:00,
2013-02-20 13:21:00,53.8,32.0,30.06,ENE,78,3.0,6.0,44,0.00,,,0.00,weatherlink.com 1.10,2013-02-20 19:21:00,
2013-02-20 13:36:00,53.8,32.0,30.04,NE,55,0.0,6.0,43,0.00,,,0.00,weatherlink.com 1.10,2013-02-20 19:36:00,
2013-02-20 13:51:00,53.6,31.0,30.04,ENE,75,1.0,6.0,43,0.00,,,0.00,weatherlink.com 1.10,2013-02-20 19:51:00,
2013-02-20 14:06:00,53.6,31.0,30.04,ENE,75,0.0,7.0,42,0.00,,,0.00,weatherlink.com 1.10,2013-02-20 20:06:00,
2013-02-20 14:21:00,53.6,31.0,30.03,SE,138,0.0,6.0,42,0.00,,,0.00,weatherlink.com 1.10,2013-02-20 20:21:00,
2013-02-20 14:36:00,53.1,35.0,30.02,NNE,26,0.0,4.0,51,0.00,,,0.00,weatherlink.com 1.10,2013-02-20 20:36:00,
2013-02-20 14:51:00,52.8,32.0,30.02,South,173,2.0,6.0,45,0.00,,,0.00,weatherlink.com 1.10,2013-02-20 20:51:00,
2013-02-20 15:07:00,53.3,31.0,30.01,ENE,58,0.0,4.0,43,0.00,,,0.00,weatherlink.com 1.10,2013-02-20 21:07:00,
2013-02-20 15:21:00,53.4,31.0,30.01,NNE,33,2.0,6.0,43,0.00,,,0.00,weatherlink.com 1.10,2013-02-20 21:21:00,
2013-02-20 15:36:00,53.4,32.0,30.01,East,100,0.0,3.0,44,0.00,,,0.00,weatherlink.com 1.10,2013-02-20 21:36:00,
2013-02-20 15:51:00,53.4,31.0,30.00,East,80,0.0,4.0,43,0.00,,,0.00,weatherlink.com 1.10,2013-02-20 21:51:00,
2013-02-20 16:07:00,53.6,31.0,30.00,NE,40,0.0,4.0,42,0.00,,,0.00,weatherlink.com 1.10,2013-02-20 22:07:00,
2013-02-20 16:22:00,53.6,31.0,29.99,East,84,0.0,4.0,42,0.00,,,0.00,weatherlink.com 1.10,2013-02-20 22:22:00,
2013-02-20 16:37:00,53.6,32.0,29.98,NE,36,0.0,3.0,44,0.00,,,0.00,weatherlink.com 1.10,2013-02-20 22:37:00,
2013-02-20 16:51:00,53.6,33.0,29.98,ENE,78,1.0,4.0,45,0.00,,,0.00,weatherlink.com 1.10,2013-02-20 22:51:00,
2013-02-20 17:06:00,53.5,32.0,29.98,NE,46,0.0,3.0,45,0.00,,,0.00,weatherlink.com 1.10,2013-02-20 23:06:00,
2013-02-20 17:21:00,53.4,33.0,29.98,NE,51,1.0,5.0,46,0.00,,,0.00,weatherlink.com 1.10,2013-02-20 23:21:00,
2013-02-20 17:36:00,53.3,33.0,29.98,East,100,0.0,3.0,47,0.00,,,0.00,weatherlink.com 1.10,2013-02-20 23:36:00,
2013-02-20 17:51:00,53.3,34.0,29.98,SSE,158,0.0,3.0,48,0.00,,,0.00,weatherlink.com 1.10,2013-02-20 23:51:00,
2013-02-20 18:06:00,53.3,34.0,29.97,SE,135,0.0,4.0,49,0.00,,,0.00,weatherlink.com 1.10,2013-02-21 00:06:00,
2013-02-20 18:21:00,53.3,35.0,29.97,East,81,1.0,3.0,50,0.00,,,0.00,weatherlink.com 1.10,2013-02-21 00:21:00,
2013-02-20 18:36:00,53.2,35.0,29.97,ESE,110,0.0,4.0,50,0.00,,,0.00,weatherlink.com 1.10,2013-02-21 00:36:00,
2013-02-20 18:52:00,53.2,35.0,29.96,ENE,74,0.0,5.0,51,0.00,,,0.00,weatherlink.com 1.10,2013-02-21 00:52:00,
2013-02-20 19:07:00,53.2,36.0,29.95,East,92,0.0,2.0,52,0.00,,,0.00,weatherlink.com 1.10,2013-02-21 01:07:00,
2013-02-20 19:22:00,53.3,36.0,29.95,ENE,70,0.0,7.0,53,0.00,,,0.00,weatherlink.com 1.10,2013-02-21 01:22:00,
2013-02-20 19:37:00,53.5,37.0,29.95,WNW,284,1.0,5.0,53,0.00,,,0.00,weatherlink.com 1.10,2013-02-21 01:37:00,
2013-02-20 19:52:00,53.7,37.0,29.94,East,91,1.0,5.0,54,0.00,,,0.00,weatherlink.com 1.10,2013-02-21 01:52:00,
2013-02-20 20:07:00,53.7,39.0,29.94,ESE,120,1.0,4.0,57,0.00,,,0.00,weatherlink.com 1.10,2013-02-21 02:07:00,
2013-02-20 20:22:00,53.9,38.0,29.94,NNE,22,1.0,4.0,56,0.00,,,0.00,weatherlink.com 1.10,2013-02-21 02:22:00,
2013-02-20 20:37:00,54.1,39.0,29.93,East,81,0.0,4.0,57,0.00,,,0.00,weatherlink.com 1.10,2013-02-21 02:37:00,
2013-02-20 20:52:00,54.4,39.0,29.93,East,80,2.0,5.0,56,0.00,,,0.00,weatherlink.com 1.10,2013-02-21 02:52:00,
2013-02-20 21:07:00,54.5,39.0,29.93,ENE,70,0.0,4.0,56,0.00,,,0.00,weatherlink.com 1.10,2013-02-21 03:07:00,
2013-02-20 21:37:00,54.8,39.0,29.93,ENE,77,2.0,5.0,55,0.00,,,0.00,weatherlink.com 1.10,2013-02-21 03:37:00,
2013-02-20 21:52:00,54.9,39.0,29.94,East,83,2.0,4.0,55,0.00,,,0.00,weatherlink.com 1.10,2013-02-21 03:52:00,
2013-02-20 22:22:00,54.8,40.0,29.93,ENE,61,0.0,3.0,57,0.00,,,0.00,weatherlink.com 1.10,2013-02-21 04:22:00,
2013-02-20 22:37:00,54.6,40.0,29.92,East,84,0.0,4.0,58,0.00,,,0.00,weatherlink.com 1.10,2013-02-21 04:37:00,
2013-02-20 22:52:00,54.6,40.0,29.91,ENE,78,0.0,5.0,58,0.00,,,0.00,weatherlink.com 1.10,2013-02-21 04:52:00,
2013-02-20 23:07:00,54.7,40.0,29.90,East,82,0.0,3.0,59,0.00,,,0.00,weatherlink.com 1.10,2013-02-21 05:07:00,
2013-02-20 23:22:00,54.8,41.0,29.90,East,95,2.0,9.0,60,0.00,,,0.00,weatherlink.com 1.10,2013-02-21 05:22:00,
2013-02-20 23:37:00,54.9,41.0,29.89,East,83,0.0,3.0,60,0.00,,,0.00,weatherlink.com 1.10,2013-02-21 05:37:00,
2013-02-20 23:52:00,55.0,42.0,29.88,ENE,77,0.0,4.0,61,0.00,,,0.00,weatherlink.com 1.10,2013-02-21 05:52:00,